Location: Dillon
(41.1766°N, 107.0923°W)
Time: 21:13:31
(UTC+00:00)

RS-44 - Pass Details

Date: 28 June 2022
Orbit: 1175 x 1510 km, 82.5° (Epoch: 13 August)

Event Time Altitude Azimuth Distance (km) Brightness Sun altitude
Rises 05:12:46 0° 222° (SW) 4,289 ? -19.9°
Reaches altitude 10° 05:15:53 10° 233° (SW) 3,372 ? -20.2°
Maximum altitude 05:22:47 31° 292° (WNW) 2,274 ? -20.8°
Drops below altitude 10° 05:30:09 10° 351° (N) 3,591 ? -21.4°
Sets 05:33:37 0° 2° (N) 4,610 ? -21.7°
